Date,TemperatureHighF,TemperatureAvgF,TemperatureLowF,DewpointHighF,DewpointAvgF,DewpointLowF,HumidityHigh,HumidityAvg,HumidityLow,PressureMaxIn,PressureMinIn,WindSpeedMaxMPH,WindSpeedAvgMPH,GustSpeedMaxMPH,PrecipitationSumIn
2013-1-1,75.6,59.0,45.1,60.5,53.4,44.0,98,84,56,30.24,30.02,4,1,10,0.00
2013-1-2,74.7,63.3,56.7,67.1,59.6,54.1,94,88,76,30.04,29.99,5,1,9,0.00
2013-1-4,57.0,52.0,47.0,51.7,48.6,44.6,95,88,80,30.34,30.27,6,2,7,0.00
2013-1-5,60.9,51.5,39.8,52.1,46.6,36.8,92,84,70,30.37,30.28,6,2,9,0.00
2013-1-6,62.0,55.3,51.0,55.9,52.7,49.0,96,91,78,30.28,30.14,4,1,7,0.36
2013-1-7,60.9,53.6,45.4,54.1,49.5,42.3,95,86,74,30.32,30.20,12,5,17,0.00
2013-1-8,68.2,60.1,57.0,62.9,57.7,54.1,97,92,83,30.31,30.21,9,4,11,0.09
2013-1-9,73.1,64.3,59.6,69.3,63.1,58.8,98,96,87,30.37,30.25,7,3,9,0.00
2013-1-10,76.8,66.7,60.0,69.3,64.4,59.4,98,93,72,30.38,30.28,8,2,12,0.00
2013-1-11,80.5,67.4,58.3,69.5,63.5,57.2,98,88,62,30.29,30.18,4,1,6,0.01
2013-1-12,81.4,68.6,57.7,70.0,63.9,56.6,98,86,55,30.23,30.12,6,1,8,0.00
2013-1-13,81.0,68.3,60.4,68.0,63.3,59.3,98,86,54,30.20,30.09,4,1,7,0.01
2013-1-14,82.1,68.7,57.5,67.7,62.8,56.2,98,83,57,30.21,30.12,4,1,7,0.00
2013-1-15,81.7,69.7,58.8,68.3,63.9,57.1,97,83,58,30.18,30.07,5,1,9,0.00
2013-1-16,81.5,71.1,64.1,68.2,64.1,61.1,95,80,55,30.11,29.99,3,1,6,0.00
2013-1-17,76.3,60.3,43.2,66.5,54.3,34.5,95,81,62,30.16,29.91,8,2,14,0.00
2013-1-18,56.2,50.5,42.2,46.3,41.8,34.4,84,72,62,30.43,30.16,16,8,22,0.00
2013-1-19,60.4,54.2,45.6,54.5,49.6,40.9,94,84,78,30.39,30.22,13,6,18,0.00
2013-1-20,73.6,59.0,48.0,54.0,51.1,46.1,96,78,46,30.24,30.09,6,1,8,0.00
2013-1-21,70.6,55.9,46.1,52.6,47.3,42.7,96,75,45,30.15,30.04,4,0,7,0.00
2013-1-22,62.9,51.1,42.9,43.2,35.3,28.7,75,57,28,30.32,30.11,6,2,8,0.01
2013-1-23,64.1,48.0,33.7,40.4,33.7,27.9,85,61,33,30.44,30.29,7,2,13,0.00
2013-1-24,72.0,58.5,46.7,53.5,46.8,39.1,88,67,46,30.31,30.19,13,4,15,0.00
2013-1-25,74.2,59.8,53.4,57.5,52.4,44.9,94,79,37,30.35,30.18,8,3,13,0.00
2013-1-26,76.5,64.1,53.7,60.7,56.5,49.8,95,78,55,30.25,30.16,8,3,11,0.00
2013-1-27,66.2,60.5,57.3,58.1,55.6,52.8,93,84,65,30.40,30.24,10,5,15,0.00
2013-1-28,74.2,63.8,53.9,63.8,59.3,52.5,96,86,67,30.39,30.28,9,3,11,0.00
2013-1-29,77.5,68.6,59.7,67.4,64.2,58.6,97,87,69,30.29,30.11,10,4,15,0.00
2013-1-30,83.2,74.0,56.3,66.2,64.3,53.8,92,73,54,30.13,29.79,20,9,26,0.05
2013-1-31,58.2,51.9,43.6,53.8,36.7,25.5,92,59,30,30.27,29.90,12,6,24,0.04
2013-2-1,62.9,50.1,37.8,38.1,32.6,28.7,73,53,31,30.35,30.25,11,4,18,0.00
2013-2-2,65.7,48.7,32.8,44.4,32.9,23.0,94,58,29,30.37,30.18,7,1,11,0.00
2013-2-3,65.6,52.6,40.3,42.6,34.1,28.1,95,54,25,30.20,30.05,9,3,17,0.00
2013-2-4,62.5,52.5,38.8,47.2,41.4,34.2,93,68,37,30.15,30.07,5,2,9,0.00
2013-2-5,71.3,57.1,42.9,51.9,46.6,40.6,94,71,42,30.13,30.01,7,1,11,0.00
2013-2-6,69.9,61.4,57.1,61.4,55.7,50.8,93,82,65,30.17,30.06,6,1,10,0.01
2013-2-7,77.3,67.1,59.7,64.8,62.1,56.0,96,85,56,30.13,29.83,11,4,20,0.01
2013-2-8,68.2,59.9,52.9,64.8,54.4,50.7,93,82,65,30.11,29.84,11,5,19,0.00
2013-2-9,62.9,53.6,46.0,52.6,46.7,41.2,95,79,50,30.29,30.10,11,3,17,0.00
2013-2-10,73.1,63.3,50.6,59.2,54.6,47.0,96,75,53,30.33,30.19,13,6,27,0.00
2013-2-11,80.7,70.0,64.3,64.8,61.6,58.6,89,76,54,30.21,30.07,11,5,16,0.00
2013-2-12,79.7,66.8,60.4,67.9,63.1,58.9,97,89,66,30.10,29.87,13,4,18,0.00
2013-2-13,77.3,71.1,58.9,72.8,64.2,48.8,92,80,49,29.95,29.80,10,6,18,0.24
2013-2-14,58.8,52.0,46.0,54.8,48.4,43.2,93,88,80,30.10,29.92,6,2,11,0.17
2013-2-15,64.0,50.0,39.3,49.7,44.3,37.9,95,82,56,30.13,30.00,6,2,11,0.00
2013-2-16,58.9,46.4,39.9,45.8,40.0,21.3,96,80,47,30.16,29.93,14,4,23,0.03
2013-2-17,51.7,40.0,30.4,26.4,17.7,6.7,79,45,17,30.38,30.16,9,4,16,0.00
2013-2-18,58.3,43.7,26.0,45.1,33.6,23.1,93,71,36,30.44,30.25,10,2,19,0.00
2013-2-19,76.9,62.1,42.2,61.0,52.3,39.9,95,73,44,30.26,30.01,15,6,27,0.01
2013-2-20,71.1,54.5,43.3,56.3,41.1,26.4,94,66,25,30.20,30.07,5,2,11,0.00
2013-2-21,70.1,55.3,41.6,58.2,46.6,39.2,94,76,38,30.18,30.07,7,2,17,0.00
2013-2-22,80.8,70.1,60.7,67.6,65.0,57.7,96,85,59,30.10,30.00,9,3,14,0.00
2013-2-23,83.3,71.3,61.6,67.6,64.9,60.4,97,82,52,30.00,29.85,13,5,21,0.41
2013-2-24,76.6,64.7,60.4,64.0,56.3,39.6,97,78,31,30.02,29.86,11,3,15,0.19
2013-2-25,67.1,61.5,58.2,65.9,59.7,55.6,97,94,80,30.00,29.82,14,7,22,3.77
2013-2-26,80.1,69.9,61.1,68.7,62.4,51.8,97,79,40,29.84,29.68,15,9,27,0.61
2013-2-27,69.4,59.6,53.2,54.1,46.5,40.8,83,64,40,29.99,29.83,12,5,24,0.00
2013-2-28,68.5,58.5,49.5,45.8,41.7,34.6,82,56,35,29.99,29.86,14,5,22,0.00
2013-3-1,59.0,51.6,46.1,37.9,36.0,33.5,68,55,42,30.03,29.92,8,5,15,0.00
2013-3-2,52.1,45.1,39.6,37.1,32.2,28.6,85,62,42,30.04,29.94,14,7,24,0.00
2013-3-3,46.1,39.9,34.6,31.6,28.8,25.6,83,65,48,30.15,30.01,14,5,25,0.00
2013-3-4,63.5,42.6,33.0,29.2,27.0,22.1,83,60,26,30.24,30.14,6,3,12,0.00
2013-3-5,76.5,61.2,42.7,58.8,46.3,37.3,84,61,30,30.20,29.89,14,7,22,0.00
2013-3-6,65.8,51.5,42.8,60.4,35.9,26.7,91,57,33,30.15,29.86,17,10,28,0.07
2013-3-7,65.0,47.6,34.7,44.1,37.2,30.5,94,69,37,30.25,30.15,7,2,10,0.00
2013-3-8,66.6,50.3,39.5,51.5,43.2,37.4,96,79,38,30.26,30.18,9,2,18,0.00
2013-3-9,66.3,52.7,41.0,52.7,46.1,39.7,97,80,51,30.31,30.20,8,2,17,0.01
2013-3-10,73.6,61.2,48.6,58.9,53.7,47.2,97,78,52,30.25,30.16,11,4,18,0.00
2013-3-11,74.5,65.9,55.0,60.7,57.4,53.1,96,76,52,30.17,29.91,11,5,20,0.00
2013-3-12,68.8,64.7,54.2,65.0,58.3,46.5,95,80,50,30.03,29.85,10,6,15,0.04
2013-3-13,69.5,58.7,47.7,47.0,36.4,30.2,81,47,24,30.20,30.03,11,5,20,0.00
2013-3-14,59.9,49.2,39.8,38.5,32.3,26.8,92,54,37,30.33,30.18,8,3,13,0.00
2013-3-15,74.6,54.6,38.0,47.9,38.7,30.6,95,61,27,30.30,30.13,7,2,11,0.00
2013-3-16,80.6,64.8,49.7,51.7,46.8,39.6,85,55,30,30.17,30.00,10,5,21,0.00
2013-3-17,77.2,64.4,49.3,57.2,49.2,41.2,92,61,28,30.14,30.00,11,3,16,0.00
2013-3-18,81.4,69.6,61.0,63.6,59.9,54.2,89,72,52,30.07,29.88,11,3,18,0.00
2013-3-19,80.3,69.3,60.9,64.0,58.2,52.7,86,69,44,30.03,29.88,13,4,30,0.00
2013-3-20,64.6,58.7,50.0,53.5,50.5,47.2,91,74,63,30.04,29.86,10,3,22,0.00
2013-3-21,66.5,53.3,42.9,47.5,33.8,21.9,93,54,19,29.97,29.87,12,4,19,0.00
2013-3-22,63.5,54.2,42.4,48.8,39.7,32.6,82,59,38,30.09,29.95,8,3,17,0.00
2013-3-23,71.2,60.8,54.2,65.5,58.2,48.8,98,91,80,30.02,29.81,12,3,19,2.01
2013-3-24,85.6,72.1,61.2,72.2,65.6,60.3,98,82,52,29.83,29.53,13,7,31,0.43
2013-3-25,70.0,58.5,49.0,61.0,36.9,23.9,82,47,24,30.04,29.62,17,9,25,0.00
2013-3-26,54.2,46.8,39.2,32.4,27.5,24.0,71,48,35,30.27,30.05,16,6,24,0.00
2013-3-27,60.7,46.7,35.1,40.0,31.5,28.4,88,59,32,30.32,30.22,8,3,15,0.00
2013-3-28,67.0,50.7,38.0,44.2,37.2,23.8,92,64,20,30.32,30.23,10,2,13,0.00
2013-3-29,73.7,55.5,42.2,47.8,41.5,32.7,95,66,24,30.35,30.23,10,2,17,0.00
2013-3-30,78.3,62.1,45.5,53.6,45.7,34.9,94,62,22,30.29,30.11,9,3,18,0.00
2013-3-31,81.7,68.8,57.2,57.4,52.4,45.7,80,57,41,30.15,29.98,11,6,18,0.00
2013-4-1,83.3,71.6,63.3,64.3,60.9,57.4,89,70,47,30.01,29.90,11,5,18,0.00
2013-4-2,75.1,65.6,56.0,59.2,50.5,41.1,90,63,30,30.14,29.99,9,3,18,0.00
2013-4-3,76.7,67.8,62.3,63.5,61.9,60.0,95,83,58,30.12,30.06,12,7,22,0.27
2013-4-4,77.9,70.5,64.5,69.8,65.6,62.9,96,85,69,30.09,29.86,12,6,20,0.20
2013-4-5,58.0,55.9,53.5,56.9,53.6,51.2,96,92,86,30.05,29.87,6,2,12,0.55
2013-4-6,67.6,58.7,47.5,57.3,52.8,46.1,95,82,59,30.20,30.05,12,4,26,0.01
2013-4-7,76.0,66.3,57.1,64.1,58.6,55.7,96,78,56,30.22,30.12,11,4,21,0.00
2013-4-8,79.4,68.1,55.5,67.8,60.5,54.4,97,79,48,30.18,30.11,11,4,17,0.00
2013-4-9,80.9,71.1,61.6,68.1,63.9,60.0,96,80,57,30.22,30.11,13,4,19,0.00
2013-4-10,79.0,71.4,61.4,67.6,64.5,59.2,93,80,65,30.17,30.02,13,5,21,0.00
2013-4-11,84.5,74.8,69.8,72.9,69.6,67.0,95,84,62,30.02,29.82,12,7,19,0.06
2013-4-12,88.7,77.9,71.8,73.7,69.9,66.2,94,78,49,29.89,29.76,17,8,25,0.10
2013-4-13,82.7,70.5,59.9,67.5,55.4,46.8,91,62,33,30.03,29.89,7,3,11,0.00
2013-4-14,73.7,64.6,57.9,65.4,61.0,56.1,96,89,68,30.04,29.88,13,3,22,1.27
2013-4-15,85.1,69.6,62.2,68.9,64.2,61.3,98,85,51,30.14,29.82,11,3,17,0.00
2013-4-16,79.7,70.7,64.8,71.0,66.3,63.8,98,87,67,30.21,30.11,10,4,15,0.00
2013-4-17,78.8,69.7,61.1,69.3,65.9,60.2,98,88,71,30.20,30.11,8,3,15,0.01
2013-4-18,82.1,72.8,63.8,69.8,66.8,62.4,98,83,59,30.12,30.00,13,5,21,0.00
2013-4-19,89.2,78.3,63.9,72.6,70.1,60.5,93,77,50,30.03,29.88,15,8,25,0.12
2013-4-20,63.4,62.6,61.6,60.4,60.0,59.5,93,91,90,30.04,30.02,5,4,12,0.07
2013-5-2,-200.0,0.0,200.0,-99.9,-99.9,-99.9,0,0,100,30.02,30.02,0,0,0,0.00
2013-5-4,69.2,67.3,66.1,67.9,66.2,64.9,97,96,94,29.82,29.74,22,16,45,0.59
2013-5-5,77.0,68.1,59.5,69.1,57.5,48.6,97,73,38,29.91,29.73,16,7,27,0.04
2013-5-6,73.4,64.6,55.4,58.8,50.8,45.2,85,63,39,30.00,29.87,9,1,15,0.00
2013-5-7,76.7,66.9,56.7,60.4,56.0,51.6,86,69,48,30.04,29.92,11,5,20,0.00
2013-5-8,81.1,69.9,57.2,64.8,58.2,54.9,95,70,43,30.12,30.01,9,3,16,0.00
2013-5-9,86.5,73.2,63.6,66.0,61.6,57.2,95,70,39,30.15,30.08,10,4,17,0.00
2013-5-10,88.3,75.7,62.0,69.9,64.1,59.6,93,70,40,30.15,30.01,11,4,21,0.00
2013-5-11,88.3,75.5,69.2,71.1,67.4,63.8,94,78,50,30.06,29.94,17,4,21,0.08
2013-5-12,84.0,74.4,66.9,69.0,65.1,57.5,95,75,53,30.05,29.94,11,6,20,0.00
2013-5-13,77.2,68.6,59.0,60.6,49.5,39.7,88,54,28,30.17,30.02,14,6,23,0.00
2013-5-14,78.6,65.7,51.5,55.6,47.3,38.0,84,55,26,30.26,30.17,12,4,19,0.00
2013-5-15,85.1,70.4,56.3,61.7,56.2,52.3,95,65,35,30.25,30.09,11,3,16,0.00
2013-5-16,87.4,74.4,65.5,67.8,63.6,59.5,87,70,41,30.15,30.04,11,5,19,0.00
2013-5-17,87.0,74.8,64.1,68.8,65.1,59.3,95,74,41,30.13,30.06,11,4,18,0.00
2013-5-18,85.1,76.1,69.3,72.0,69.3,64.2,93,80,55,30.15,30.05,14,6,22,0.10
2013-5-19,86.0,76.1,70.1,74.6,70.6,67.7,94,84,64,30.12,30.02,10,5,21,0.43
2013-5-20,85.0,75.8,70.0,73.4,70.8,68.2,95,85,63,30.12,30.03,9,4,14,0.11
2013-5-21,81.5,75.1,69.7,73.1,70.6,68.5,97,87,66,30.08,29.97,12,3,17,0.00
2013-5-22,80.2,74.2,68.2,73.8,70.6,67.0,97,89,75,30.02,29.93,10,3,15,0.11
2013-5-23,89.4,78.3,68.9,73.3,70.4,67.0,97,78,53,30.00,29.91,12,3,15,0.00
2013-5-24,87.5,78.5,70.4,71.2,63.1,54.1,95,63,34,30.13,29.95,15,6,23,0.00
2013-5-25,76.9,71.8,63.7,64.1,57.7,52.7,86,62,46,30.28,30.13,19,8,25,0.00
2013-5-26,82.7,71.3,59.0,64.5,56.8,50.0,95,64,36,30.26,30.17,14,4,21,0.00
2013-5-27,82.5,73.8,63.9,67.2,63.8,59.7,89,72,53,30.24,30.16,10,4,18,0.00
2013-5-28,81.6,75.7,66.3,68.8,66.4,63.6,92,73,60,30.21,30.14,12,6,21,0.00
2013-5-29,82.7,77.4,71.3,73.2,71.2,68.2,91,82,69,30.20,30.11,14,6,23,0.00
2013-5-30,83.9,78.4,72.6,73.5,72.2,69.2,93,82,66,30.20,30.11,16,8,27,0.06
2013-5-31,83.4,77.7,71.7,72.6,71.4,69.0,95,82,67,30.18,30.12,14,7,24,0.03
2013-6-1,83.5,78.4,74.7,73.5,71.9,69.4,91,81,66,30.13,30.05,13,7,22,0.00
2013-6-2,84.6,79.6,75.4,75.2,74.0,72.7,93,83,73,30.09,29.90,14,7,22,0.00
2013-6-3,92.7,80.1,74.4,76.3,73.5,71.1,94,81,54,29.97,29.86,17,4,26,0.01
2013-6-4,89.0,78.0,73.2,77.5,73.6,71.5,95,87,65,30.03,29.94,8,3,15,1.17
2013-6-5,86.5,77.0,72.7,74.3,72.4,71.0,96,86,63,30.03,29.95,12,3,20,0.02
2013-6-6,77.9,74.7,71.8,75.4,72.6,70.0,96,93,86,29.97,29.55,20,8,30,1.73
2013-6-7,89.0,79.2,71.0,74.8,71.8,69.2,97,79,57,29.93,29.55,20,9,29,0.03
2013-6-8,93.5,80.8,74.3,76.2,72.9,67.8,95,79,47,30.09,29.92,10,5,17,0.00
2013-6-9,86.8,78.4,74.5,76.8,73.7,71.2,93,86,68,30.14,30.05,12,4,21,0.09
2013-6-10,92.7,81.8,75.1,77.6,74.6,72.0,95,80,52,30.12,30.00,11,5,24,0.00
2013-6-11,92.5,83.2,75.8,76.1,73.8,70.1,93,75,50,30.09,30.00,7,3,12,0.00
2013-6-12,95.9,85.5,75.7,77.3,74.2,70.8,93,71,46,30.07,29.96,8,4,13,0.00
2013-6-13,95.5,86.8,78.7,78.0,75.8,71.0,88,71,52,30.01,29.85,10,5,15,0.02
2013-6-14,80.6,79.0,78.2,76.4,75.7,75.4,92,90,85,29.89,29.79,9,6,14,0.00
2013-7-1,85.8,85.0,84.4,75.8,75.4,75.1,75,73,71,29.93,29.92,10,9,12,0.00
2013-7-3,83.3,80.6,77.9,77.0,75.7,73.7,88,85,81,30.16,30.09,9,7,19,0.05
2013-7-4,86.9,80.2,73.5,77.2,74.4,70.8,94,83,70,30.20,30.12,17,7,28,0.02
2013-7-5,87.3,80.4,73.6,77.2,74.5,71.5,95,83,67,30.19,30.12,17,6,27,0.00
2013-7-6,86.6,80.9,76.0,76.4,74.9,73.4,93,82,69,30.17,30.09,16,7,27,0.00
2013-7-7,87.3,81.0,75.7,76.9,74.5,71.7,94,81,65,30.18,30.10,13,5,20,0.00
2013-7-8,87.8,80.9,73.1,77.3,74.4,71.7,96,82,64,30.20,30.12,11,4,18,0.00
2013-7-9,88.1,79.5,74.1,78.0,74.0,71.2,97,84,60,30.19,30.09,10,3,18,0.00
2013-7-10,87.5,80.3,71.9,76.2,73.2,70.7,97,80,61,30.13,29.98,13,4,20,0.00
2013-7-11,94.3,81.9,75.4,76.7,74.1,71.6,93,79,50,30.04,29.89,14,5,24,0.30
2013-7-12,90.1,79.5,75.0,77.1,74.5,70.9,94,85,61,29.95,29.89,11,3,22,0.50
2013-7-13,85.1,77.2,71.4,76.5,73.9,70.2,96,90,74,30.03,29.91,10,2,18,0.22
2013-7-14,84.7,77.3,71.3,75.3,72.7,70.1,97,86,71,30.16,30.00,14,5,22,0.00
2013-7-15,85.2,78.5,72.2,77.8,74.5,70.9,97,88,75,30.19,30.10,19,6,28,0.27
2013-7-16,85.5,80.1,75.4,76.8,75.3,73.7,96,86,69,30.23,30.17,15,6,26,0.00
2013-7-17,86.4,80.3,75.1,77.4,74.8,71.5,97,84,63,30.23,30.12,15,5,18,0.00
2013-7-18,87.4,79.9,72.5,76.9,73.9,71.2,97,83,63,30.16,30.07,10,3,16,0.00
2013-7-19,92.3,79.7,74.9,75.7,73.4,71.1,93,82,51,30.14,30.05,12,4,18,0.19
2013-7-20,89.9,77.4,71.9,76.0,72.5,69.8,95,85,62,30.11,30.03,15,4,22,0.35
2013-7-21,90.7,78.8,73.4,76.9,73.4,70.7,95,84,58,30.12,30.03,15,4,18,0.08
2013-7-22,90.8,79.1,72.7,76.9,74.6,68.3,97,87,58,30.12,30.03,19,5,34,1.09
2013-7-23,91.0,79.7,74.9,77.5,74.3,71.9,93,84,63,30.04,29.91,15,6,25,0.00
2013-7-24,87.4,79.5,73.1,76.7,73.7,70.0,93,83,69,29.92,29.80,10,6,18,0.02
2013-7-25,90.5,80.4,72.8,78.2,74.0,70.7,94,82,61,29.97,29.83,8,4,13,0.00
2013-7-26,89.2,81.2,74.6,78.5,76.1,73.4,97,85,63,30.04,29.95,10,3,16,0.00
2013-7-27,93.9,80.3,74.6,79.0,75.5,72.0,96,86,58,30.03,29.90,13,2,14,0.77
2013-7-28,91.9,79.3,74.4,76.4,74.0,71.7,96,85,59,30.07,29.93,17,4,24,0.01
2013-7-29,94.6,82.2,74.1,77.6,74.2,70.8,93,78,49,30.17,30.04,11,4,19,0.00
2013-7-30,94.5,74.1,78.3,80.1,57.3,-99.9,92,72,57,30.19,30.11,8,-102,11,0.12
2013-7-31,92.7,69.6,73.0,79.0,53.0,-99.9,97,76,60,30.14,30.05,21,-125,40,0.88
2013-8-1,93.6,65.1,72.1,78.1,45.8,-99.9,97,74,57,30.06,29.95,15,-157,31,1.78
2013-8-2,93.4,72.9,74.0,77.7,54.5,-99.9,97,70,53,30.05,29.95,13,-112,21,0.00
2013-8-3,89.9,73.2,75.4,80.1,60.5,-99.9,96,80,66,30.07,29.99,17,-89,23,0.25
2013-8-4,94.3,75.2,76.8,80.6,55.3,-99.9,95,67,52,30.06,29.94,9,-112,19,0.00
2013-8-5,93.6,73.8,78.5,79.4,55.1,-99.9,93,70,55,30.01,29.92,15,-122,20,0.00
2013-8-6,88.3,72.9,78.1,78.8,56.3,-99.9,97,74,71,30.01,29.92,12,-114,18,0.00
2013-8-7,87.4,68.8,77.4,78.6,48.1,-99.9,94,71,73,30.03,29.96,16,-157,23,0.00
2013-8-8,89.8,72.9,78.6,78.9,53.5,-99.9,95,69,62,30.08,29.98,13,-127,19,0.00
2013-8-9,90.3,73.0,78.6,78.6,53.7,-99.9,93,69,61,30.11,30.00,11,-124,18,0.00
2013-8-10,92.5,74.8,76.7,78.0,57.4,-99.9,95,71,54,30.16,30.06,12,-103,19,0.32
2013-8-11,96.3,73.7,79.1,78.5,51.5,-99.9,93,64,54,30.16,30.07,12,-137,16,0.00
2013-8-12,96.2,73.1,77.9,78.9,50.2,-99.9,90,63,53,30.13,30.01,9,-145,15,0.51
2013-8-13,96.2,73.8,77.1,77.5,47.9,-99.9,95,58,43,30.04,29.90,8,-150,12,0.00
2013-8-14,96.2,73.9,72.6,80.2,54.8,-99.9,92,68,52,30.02,29.87,18,-114,23,0.39
2013-8-15,95.0,67.9,71.7,79.1,47.0,-99.9,100,70,53,30.06,29.92,14,-155,33,0.93
2013-8-16,84.3,48.3,72.9,77.1,7.6,-99.9,97,55,75,30.06,29.99,8,-382,13,0.00
2013-8-18,80.0,79.7,79.5,77.9,77.6,77.2,95,93,92,30.13,30.11,2,0,5,0.02
2013-8-19,91.1,71.4,78.4,79.8,50.0,-99.9,96,68,59,30.13,29.99,11,-150,20,0.00
2013-8-20,89.7,70.9,73.9,80.5,50.2,-99.9,96,69,66,30.15,30.03,11,-144,20,0.00
2013-8-21,87.8,70.0,75.4,80.2,52.0,-99.9,96,74,72,30.19,30.10,13,-138,21,0.20
2013-8-22,80.8,69.1,73.6,78.5,56.2,-99.9,97,82,81,30.17,30.04,20,-103,22,0.26
2013-8-23,86.5,66.6,74.1,79.0,49.5,-99.9,98,78,73,30.07,30.01,10,-147,14,0.06
2013-8-24,83.6,65.1,73.0,76.7,43.8,-99.9,98,72,76,30.16,30.03,15,-169,21,0.00
2013-8-25,83.6,65.6,73.1,76.8,46.1,-99.9,98,74,78,30.22,30.14,28,-150,37,0.15
2013-8-26,84.2,68.2,75.6,76.9,49.6,-99.9,93,72,72,30.21,30.10,20,-131,27,0.00
2013-8-27,86.1,63.7,74.0,75.9,36.4,-99.9,94,61,53,30.12,30.04,13,-198,17,0.00
2013-9-3,92.9,86.6,77.5,77.6,76.1,74.0,91,72,56,30.01,29.89,8,4,14,0.00
2013-9-4,96.8,72.0,78.1,78.8,49.0,-99.9,93,64,47,30.10,29.98,12,-150,18,0.00
2013-9-5,95.0,77.3,72.5,78.4,66.8,-99.9,95,80,52,30.11,30.01,21,-47,26,0.48
2013-9-6,87.8,66.3,73.8,79.2,45.7,-99.9,97,72,69,30.07,29.99,16,-169,22,0.00
2013-9-7,85.7,62.6,72.2,76.3,34.8,-99.9,97,62,62,30.06,29.97,17,-213,25,0.00
2013-9-8,85.7,82.0,75.8,72.6,70.2,67.3,86,68,55,30.00,29.93,15,5,19,0.00
2013-9-9,86.8,72.5,71.4,75.0,55.7,-99.9,95,70,57,30.09,29.98,12,-89,19,0.00
2013-9-10,86.4,68.8,73.5,74.3,46.4,-99.9,92,64,62,30.17,30.06,20,-142,29,0.00
2013-9-11,86.6,69.0,72.8,76.8,49.1,-99.9,96,70,65,30.15,30.06,18,-131,26,0.00
2013-9-12,87.3,80.1,73.8,75.1,73.5,71.5,95,81,62,30.07,29.92,11,3,16,0.00
2013-9-13,83.3,49.4,74.4,75.0,11.9,-99.9,96,58,76,29.93,29.87,4,-355,8,0.00
2013-9-20,83.5,78.9,71.1,71.9,70.1,66.9,93,75,60,30.07,29.95,12,6,16,0.00
2013-9-21,89.5,66.3,69.1,74.6,41.9,-99.9,96,63,52,29.97,29.77,10,-167,14,0.00
2013-9-23,82.5,78.3,75.6,75.8,74.5,72.8,95,88,78,29.98,29.92,12,4,14,0.00
2013-9-24,80.4,59.6,73.3,76.4,36.8,-99.9,98,74,85,29.98,29.85,16,-210,20,1.62
2013-9-30,78.1,74.7,70.1,68.1,65.2,62.3,84,73,62,30.07,29.99,19,9,22,0.00
2013-10-1,70.7,30.6,67.7,66.1,-27.3,-99.9,91,38,82,30.09,30.03,6,-560,6,0.00
2013-10-2,79.2,60.5,64.5,69.5,38.9,-99.9,98,69,66,30.13,30.07,15,5,0,0.00
2013-10-3,81.4,62.8,67.1,74.4,43.0,-99.9,97,74,77,30.12,30.05,15,5,0,0.00
2013-10-4,84.6,63.1,71.7,76.6,41.0,-99.9,100,71,71,30.13,30.05,15,4,0,0.00
2013-10-5,81.5,63.0,70.6,75.8,42.1,-99.9,97,73,74,30.11,30.03,15,6,0,0.00
2013-10-6,84.7,64.0,72.1,78.7,41.9,-99.9,97,71,75,30.03,29.89,9,3,0,0.40
2013-10-7,89.8,65.0,74.4,77.0,43.6,-99.9,94,71,60,29.89,29.77,10,3,0,0.13
2013-10-8,78.6,56.5,65.0,74.7,33.8,-99.9,98,74,87,30.04,29.80,22,10,30,0.10
2013-10-9,74.9,48.7,59.8,67.5,20.5,-99.9,98,67,76,30.12,30.02,14,-257,24,0.00
2013-10-10,81.9,59.3,62.4,66.3,35.5,-99.9,97,65,52,30.10,29.99,10,-169,18,0.00
2013-10-11,83.6,59.2,63.4,66.3,32.2,-99.9,96,60,45,30.07,29.94,10,-189,17,0.00
2013-10-12,84.8,72.3,61.4,65.9,62.5,58.5,95,75,43,30.06,29.98,9,2,17,0.00
2013-10-13,83.8,71.8,63.5,70.5,65.0,61.1,96,81,50,30.11,30.03,20,5,26,0.00
2013-10-14,75.7,69.8,64.6,69.8,66.7,63.5,97,90,77,30.10,30.02,22,10,29,0.00
2013-10-15,70.9,68.8,66.7,68.3,67.0,65.8,98,94,88,30.04,29.97,23,13,27,0.08
2013-10-16,79.3,71.0,64.2,72.5,67.6,63.0,97,89,75,30.01,29.94,13,6,18,0.00
2013-10-17,88.3,74.8,65.3,74.0,69.2,64.5,98,84,55,30.00,29.90,10,2,11,0.00
2013-10-18,88.8,77.1,69.2,74.7,71.6,67.7,96,84,57,30.01,29.91,9,3,13,0.00
2013-10-19,88.3,78.0,71.6,76.2,73.1,70.4,96,86,61,29.97,29.87,8,3,11,0.08
2013-10-20,75.5,70.4,66.2,70.9,65.2,61.1,97,84,70,30.03,29.91,16,8,21,0.00
2013-10-21,77.4,73.0,68.1,74.0,70.4,66.5,97,92,87,30.06,29.97,19,8,24,0.00
2013-10-22,76.9,72.8,68.5,74.1,71.4,67.6,97,95,91,30.00,29.83,14,6,20,0.32
2013-10-23,74.8,66.5,58.3,67.4,57.5,49.1,98,76,43,30.06,29.83,16,6,22,0.11
2013-10-24,59.4,53.6,49.5,50.4,45.9,42.8,80,75,70,30.21,30.06,11,6,17,0.00
2013-10-25,70.5,61.6,54.3,50.9,48.9,46.9,81,64,48,30.30,30.20,10,7,13,0.00
2013-10-26,68.4,57.7,48.8,57.5,52.4,47.1,96,83,64,30.29,30.16,15,5,21,0.00
2013-10-27,73.4,58.8,47.5,53.3,49.4,43.4,96,75,37,30.19,30.12,8,2,14,0.01
2013-10-28,75.3,62.0,52.4,61.1,56.1,50.5,96,83,59,30.25,30.14,11,3,16,0.00
2013-10-29,72.6,61.3,58.0,67.5,59.8,56.4,97,95,82,30.31,30.22,16,3,21,0.01
2013-10-30,76.1,70.5,62.2,69.0,64.9,61.0,97,83,70,30.29,30.20,20,7,26,0.01
2013-10-31,83.3,72.3,64.7,72.7,67.4,62.2,98,85,60,30.20,30.00,11,3,16,0.00
2013-11-1,79.1,73.9,70.9,72.3,69.7,68.0,93,87,73,30.02,29.83,10,6,17,0.00
2013-11-2,76.4,66.9,56.6,72.6,63.0,55.5,97,88,59,29.99,29.80,15,4,20,0.80
2013-11-3,67.9,60.1,50.3,57.0,51.0,47.5,95,73,50,30.23,29.98,23,11,36,0.00
2013-11-4,72.0,62.9,54.1,63.7,56.4,50.3,96,80,62,30.29,30.21,27,8,43,0.04
2013-11-5,65.5,64.8,64.3,64.4,63.6,62.5,97,96,94,30.28,30.21,0,0,0,0.03
2013-11-7,79.8,72.0,65.7,68.4,66.5,63.6,98,84,63,30.09,29.98,0,0,0,0.00
2013-11-8,68.6,59.4,49.9,63.0,50.7,45.3,86,73,65,30.24,30.05,0,0,0,0.00
2013-11-9,71.6,63.8,53.7,62.9,57.0,51.4,92,79,71,30.27,30.19,0,0,0,0.00
2013-11-11,72.6,67.4,57.0,63.9,61.9,54.7,96,83,65,30.23,30.15,0,0,1,0.01
2013-11-12,73.2,66.0,59.7,63.6,59.2,48.3,97,80,52,30.18,30.04,0,0,0,0.00
2013-11-13,59.4,48.8,42.6,48.0,40.2,36.0,82,72,61,30.45,30.18,0,0,0,0.00
2013-11-14,62.7,53.2,41.5,57.9,49.4,36.6,96,87,79,30.41,30.25,0,0,0,0.00
2013-11-15,66.8,62.1,57.5,65.3,60.7,56.4,97,95,92,30.26,30.09,0,0,0,0.05
2013-11-16,74.3,66.6,61.0,68.0,64.2,60.1,98,93,72,30.21,30.12,0,0,0,0.00
2013-11-17,79.5,71.1,65.9,73.2,69.0,65.0,98,93,80,30.14,30.02,0,0,0,0.08
2013-11-18,79.0,72.2,69.4,74.1,70.5,68.2,97,94,82,30.05,29.91,0,0,0,0.29
2013-11-19,71.2,62.1,53.0,70.3,55.0,45.9,97,78,64,30.07,29.93,0,0,0,0.00
2013-11-20,68.6,63.4,59.7,63.9,60.5,56.7,98,91,81,30.22,30.05,0,0,0,0.01
2013-11-21,69.9,64.7,62.0,66.5,63.2,60.8,98,95,88,30.28,30.18,0,0,0,0.01
2013-11-22,77.3,68.4,63.2,69.8,65.4,62.2,98,91,70,30.28,30.16,0,0,0,0.09
2013-11-23,81.3,68.7,59.0,67.7,63.6,58.4,98,85,53,30.16,30.02,0,0,0,0.01
2013-11-24,63.5,55.7,51.0,60.4,47.3,38.6,91,74,59,30.39,30.10,0,0,0,0.00
2013-11-25,66.8,60.0,53.6,61.3,54.7,45.2,96,83,71,30.37,30.13,0,0,0,0.00
2013-11-26,76.8,70.6,66.4,72.2,67.6,60.6,97,90,81,30.14,29.71,0,0,0,0.90
2013-11-27,70.7,54.4,38.0,69.8,49.6,33.0,97,84,70,30.25,29.62,0,0,0,0.08
2013-11-28,53.7,41.9,31.0,44.6,36.7,27.6,90,82,69,30.44,30.25,0,0,0,0.00
2013-11-29,59.2,51.0,40.8,51.2,45.6,37.6,91,82,66,30.47,30.40,0,0,0,0.00
2013-11-30,57.6,54.7,53.0,55.0,52.3,49.4,95,92,83,30.42,30.26,0,0,0,0.00
2013-12-1,66.3,57.2,50.7,60.3,54.3,48.7,97,90,80,30.26,30.02,0,0,0,0.00
2013-12-2,67.1,56.7,50.8,57.1,53.5,49.4,97,90,67,30.01,29.85,0,0,0,0.00
2013-12-3,73.8,60.5,49.5,61.3,56.1,48.3,98,86,62,29.99,29.90,0,0,0,0.01
2013-12-4,63.7,61.0,58.6,62.8,59.3,56.9,97,94,91,30.06,29.97,0,0,0,0.00
2013-12-5,83.4,71.0,61.8,69.5,65.2,60.6,97,83,57,30.19,30.09,8,2,11,0.02
2013-12-6,83.3,72.9,66.0,70.5,67.3,63.9,96,84,60,30.18,30.11,10,4,15,0.00
2013-12-7,83.6,72.2,67.3,71.9,67.8,65.4,98,87,62,30.24,30.15,9,4,12,0.00
2013-12-8,68.8,63.4,61.7,66.4,62.4,60.9,99,97,91,30.28,30.18,15,8,23,0.00
2013-12-9,83.1,70.0,61.7,71.4,66.3,61.4,99,89,62,30.21,30.08,10,3,15,0.01
2013-12-10,79.4,67.9,52.2,71.2,63.9,43.7,95,87,69,30.28,30.04,14,7,20,0.17
2013-12-11,64.3,55.4,45.8,58.9,50.9,42.6,91,85,73,30.33,30.25,23,11,30,0.00
2013-12-12,62.6,53.7,43.3,50.2,41.0,26.9,95,66,26,30.40,30.26,15,6,22,0.00
2013-12-13,63.8,52.8,42.4,56.1,49.0,39.9,97,87,74,30.36,30.16,22,7,28,0.00
2013-12-14,77.8,65.9,54.0,69.3,63.4,52.9,98,92,74,30.16,29.88,15,5,29,0.67
2013-12-15,67.7,59.1,47.1,66.4,56.1,43.2,98,90,79,30.18,29.86,18,5,33,0.32
2013-12-16,58.0,46.2,36.4,46.7,40.9,34.6,97,83,55,30.28,30.17,11,3,15,0.00
2013-12-17,67.4,50.9,40.5,42.8,39.2,36.4,97,69,34,30.30,30.18,10,3,16,0.00
2013-12-18,61.9,52.0,41.7,42.6,37.4,27.9,96,63,28,30.33,30.25,13,4,21,0.00
2013-12-19,69.0,52.7,37.7,58.1,48.7,36.7,97,87,66,30.33,30.23,11,2,17,0.00
2013-12-20,74.4,60.4,47.6,63.4,56.9,47.1,98,89,67,30.25,30.16,10,2,12,0.01
2013-12-21,82.9,72.3,64.1,70.5,66.7,62.2,95,84,56,30.17,30.05,11,6,16,0.00
2013-12-22,83.2,74.6,69.5,71.7,69.9,68.3,97,86,67,30.15,30.08,13,6,22,0.00
2013-12-23,81.6,73.2,59.0,71.4,68.9,57.0,95,87,68,30.17,30.07,16,6,23,0.01
2013-12-24,59.1,53.1,42.6,57.1,43.7,34.1,95,72,42,30.34,30.14,18,9,26,0.00
2013-12-25,57.9,48.6,37.7,52.9,44.9,33.0,92,87,72,30.33,30.26,28,3,34,0.00
2013-12-26,54.9,51.4,47.4,51.4,48.0,44.3,94,88,84,30.31,30.20,0,0,0,0.00
2013-12-27,57.6,53.8,50.8,54.3,51.1,48.3,93,91,86,30.35,30.24,0,0,0,0.00
2013-12-29,71.0,63.6,57.2,64.5,59.3,54.6,91,86,80,30.03,29.92,0,0,0,1.04
2013-12-30,72.7,57.2,47.4,60.1,52.2,45.8,95,85,60,30.19,30.03,0,0,20,0.01
2014-1-1,53.6,53.5,53.5,50.4,50.3,50.3,89,89,89,30.30,30.30,0,0,0,0.00